Time,TemperatureF,DewpointF,PressureIn,WindDirection,WindDirectionDegrees,WindSpeedMPH,WindSpeedGustMPH,Humidity,HourlyPrecipIn,Conditions,Clouds,dailyrainin,SolarRadiationWatts/m^2,SoftwareType,DateUTC
2013-06-17 00:22:00,59.0,47.0,-100.00,North,359,2.0,4.0,64,0.00,,,0.00,0.000000,,2013-06-17 08:22:00,
2013-06-17 00:33:00,59.0,47.0,-100.00,North,359,2.0,4.0,64,0.00,,,0.00,0.000000,,2013-06-17 08:33:00,
2013-06-17 00:43:00,59.0,47.0,-100.00,North,359,2.0,4.0,64,0.00,,,0.00,0.000000,,2013-06-17 08:43:00,
2013-06-17 00:52:00,59.0,47.0,-100.00,North,359,2.0,4.0,64,0.00,,,0.00,0.000000,,2013-06-17 08:52:00,
2013-06-17 01:34:00,54.0,44.0,-100.00,NW,325,1.0,4.0,68,0.00,,,0.00,0.000000,,2013-06-17 09:34:00,
2013-06-17 01:43:00,54.0,44.0,-100.00,NW,325,1.0,4.0,68,0.00,,,0.00,0.000000,,2013-06-17 09:43:00,
2013-06-17 01:52:00,54.0,44.0,-100.00,NW,325,1.0,4.0,68,0.00,,,0.00,0.000000,,2013-06-17 09:52:00,
2013-06-17 02:22:00,52.0,43.0,-100.00,WNW,283,2.0,4.0,72,0.00,,,0.00,0.000000,,2013-06-17 10:22:00,
2013-06-17 02:33:00,52.0,43.0,-100.00,WNW,283,2.0,4.0,72,0.00,,,0.00,0.000000,,2013-06-17 10:33:00,
2013-06-17 02:42:00,52.0,43.0,-100.00,WNW,283,2.0,4.0,72,0.00,,,0.00,0.000000,,2013-06-17 10:42:00,
2013-06-17 02:53:00,52.0,43.0,-100.00,WNW,283,2.0,4.0,72,0.00,,,0.00,0.000000,,2013-06-17 10:53:00,
2013-06-17 03:23:00,53.0,44.0,-100.00,NNW,331,4.0,8.0,72,0.00,,,0.00,0.000000,,2013-06-17 11:23:00,
2013-06-17 03:33:00,53.0,44.0,-100.00,NNW,331,4.0,8.0,72,0.00,,,0.00,0.000000,,2013-06-17 11:33:00,
2013-06-17 03:43:00,53.0,44.0,-100.00,NNW,331,4.0,8.0,72,0.00,,,0.00,0.000000,,2013-06-17 11:43:00,
2013-06-17 03:53:00,53.0,44.0,-100.00,NNW,331,4.0,8.0,72,0.00,,,0.00,0.000000,,2013-06-17 11:53:00,
2013-06-17 04:22:00,54.0,44.0,-100.00,NNW,338,4.0,9.0,68,0.00,,,-99.99,1.000000,,2013-06-17 12:22:00,
2013-06-17 04:33:00,54.0,44.0,-100.00,NNW,338,4.0,9.0,68,0.00,,,-99.99,1.000000,,2013-06-17 12:33:00,
2013-06-17 04:43:00,54.0,44.0,-100.00,NNW,338,4.0,9.0,68,0.00,,,-99.99,1.000000,,2013-06-17 12:43:00,
2013-06-17 04:53:00,54.0,44.0,-100.00,NNW,338,4.0,9.0,68,0.00,,,-99.99,1.000000,,2013-06-17 12:53:00,
2013-06-17 05:22:00,59.0,44.0,-100.00,SE,138,0.0,4.0,58,0.00,,,-99.99,27.000000,,2013-06-17 13:22:00,
2013-06-17 05:32:00,59.0,44.0,-100.00,SE,138,0.0,4.0,58,0.00,,,-99.99,27.000000,,2013-06-17 13:32:00,
2013-06-17 05:43:00,59.0,44.0,-100.00,SE,138,0.0,4.0,58,0.00,,,-99.99,27.000000,,2013-06-17 13:43:00,
2013-06-17 05:52:00,59.0,44.0,-100.00,SE,138,0.0,4.0,58,0.00,,,-99.99,27.000000,,2013-06-17 13:52:00,
2013-06-17 06:34:00,62.0,47.0,-100.00,East,99,0.0,2.0,59,0.00,,,-99.99,123.000000,,2013-06-17 14:34:00,
2013-06-17 06:43:00,62.0,47.0,-100.00,East,99,0.0,2.0,59,0.00,,,-99.99,123.000000,,2013-06-17 14:43:00,
2013-06-17 06:53:00,62.0,47.0,-100.00,East,99,0.0,2.0,59,0.00,,,-99.99,123.000000,,2013-06-17 14:53:00,
2013-06-17 07:33:00,62.0,47.0,-100.00,East,85,2.0,4.0,57,0.00,,,0.00,183.000000,,2013-06-17 15:33:00,
2013-06-17 07:43:00,62.0,47.0,-100.00,East,85,2.0,4.0,57,0.00,,,0.00,183.000000,,2013-06-17 15:43:00,
2013-06-17 07:52:00,62.0,47.0,-100.00,East,85,2.0,4.0,57,0.00,,,-99.99,183.000000,,2013-06-17 15:52:00,
2013-06-17 08:22:00,62.0,49.0,-100.00,NE,51,1.0,4.0,63,0.00,,,0.00,121.000000,,2013-06-17 16:22:00,
2013-06-17 08:33:00,62.0,49.0,-100.00,NE,51,1.0,4.0,63,0.00,,,0.00,121.000000,,2013-06-17 16:33:00,
2013-06-17 08:43:00,62.0,49.0,-100.00,NE,51,1.0,4.0,63,0.00,,,0.00,121.000000,,2013-06-17 16:43:00,
2013-06-17 08:53:00,62.0,49.0,-100.00,NE,51,1.0,4.0,63,0.00,,,0.00,121.000000,,2013-06-17 16:53:00,
2013-06-17 09:22:00,65.0,46.0,-100.00,North,7,4.0,11.0,50,-99.99,,,0.00,282.000000,,2013-06-17 17:22:00,
2013-06-17 09:33:00,65.0,46.0,-100.00,North,7,4.0,11.0,50,-99.99,,,0.00,282.000000,,2013-06-17 17:33:00,
2013-06-17 09:43:00,65.0,46.0,-100.00,North,7,4.0,11.0,50,-99.99,,,0.00,282.000000,,2013-06-17 17:43:00,
2013-06-17 09:52:00,65.0,46.0,-100.00,North,7,4.0,11.0,50,-99.99,,,0.00,282.000000,,2013-06-17 17:52:00,
2013-06-17 11:33:00,66.0,48.0,-100.00,North,4,3.0,6.0,52,-99.99,,,0.00,144.000000,,2013-06-17 19:33:00,
2013-06-17 11:43:00,66.0,48.0,-100.00,North,4,3.0,6.0,52,-99.99,,,0.00,144.000000,,2013-06-17 19:43:00,
2013-06-17 11:53:00,66.0,48.0,-100.00,North,4,3.0,6.0,52,-99.99,,,0.00,144.000000,,2013-06-17 19:53:00,
2013-06-17 12:22:00,64.0,48.0,-100.00,North,356,1.0,6.0,56,0.00,,,0.00,191.000000,,2013-06-17 20:22:00,
2013-06-17 12:34:00,64.0,48.0,-100.00,North,356,1.0,6.0,56,0.00,,,0.00,191.000000,,2013-06-17 20:34:00,
2013-06-17 12:43:00,64.0,48.0,-100.00,North,356,1.0,6.0,56,0.00,,,0.00,191.000000,,2013-06-17 20:43:00,
2013-06-17 12:52:00,64.0,48.0,-100.00,North,356,1.0,6.0,56,0.00,,,0.00,191.000000,,2013-06-17 20:52:00,
2013-06-17 14:53:00,70.0,54.0,-100.00,South,175,6.0,9.0,56,-99.99,,,-99.99,564.000000,,2013-06-17 22:53:00,
2013-06-17 16:32:00,72.0,53.0,-100.00,SSW,200,7.0,13.0,52,-99.99,,,0.00,813.000000,,2013-06-18 00:32:00,
2013-06-17 16:52:00,72.0,53.0,-100.00,SSW,200,7.0,13.0,52,-99.99,,,0.00,813.000000,,2013-06-18 00:52:00,
2013-06-17 17:23:00,70.0,52.0,-100.00,South,187,8.0,14.0,53,0.00,,,0.00,629.000000,,2013-06-18 01:23:00,
2013-06-17 17:34:00,70.0,52.0,-100.00,South,187,8.0,14.0,53,0.00,,,0.00,629.000000,,2013-06-18 01:34:00,
2013-06-17 17:44:00,70.0,52.0,-100.00,South,187,8.0,14.0,53,0.00,,,0.00,629.000000,,2013-06-18 01:44:00,
2013-06-17 17:53:00,70.0,52.0,-100.00,South,187,8.0,14.0,53,0.00,,,0.00,629.000000,,2013-06-18 01:53:00,
2013-06-17 18:22:00,70.0,52.0,-100.00,SSW,201,6.0,13.0,53,0.00,,,0.00,447.000000,,2013-06-18 02:22:00,
2013-06-17 19:23:00,68.0,50.0,-100.00,SW,218,5.0,11.0,53,-99.99,,,0.00,280.000000,,2013-06-18 03:23:00,
2013-06-17 19:34:00,68.0,50.0,-100.00,SW,218,5.0,11.0,53,-99.99,,,0.00,280.000000,,2013-06-18 03:34:00,
2013-06-17 19:42:00,68.0,50.0,-100.00,SW,218,5.0,11.0,53,-99.99,,,0.00,280.000000,,2013-06-18 03:42:00,
2013-06-17 19:53:00,68.0,50.0,-100.00,SW,218,5.0,11.0,53,-99.99,,,0.00,280.000000,,2013-06-18 03:53:00,
2013-06-17 20:22:00,61.0,48.0,-100.00,SSW,210,3.0,11.0,63,-99.99,,,0.00,96.000000,,2013-06-18 04:22:00,
2013-06-17 20:34:00,61.0,48.0,-100.00,SSW,210,3.0,11.0,63,-99.99,,,0.00,96.000000,,2013-06-18 04:34:00,
2013-06-17 20:43:00,61.0,48.0,-100.00,SSW,210,3.0,11.0,63,-99.99,,,0.00,96.000000,,2013-06-18 04:43:00,
2013-06-17 20:53:00,61.0,48.0,-100.00,SSW,210,3.0,11.0,63,-99.99,,,0.00,96.000000,,2013-06-18 04:53:00,
2013-06-17 21:22:00,58.0,49.0,-100.00,SSW,194,4.0,11.0,71,0.00,,,0.00,28.000000,,2013-06-18 05:22:00,
2013-06-17 21:33:00,58.0,49.0,-100.00,SSW,194,4.0,11.0,71,0.00,,,0.00,28.000000,,2013-06-18 05:33:00,
2013-06-17 21:43:00,58.0,49.0,-100.00,SSW,194,4.0,11.0,71,0.00,,,0.00,28.000000,,2013-06-18 05:43:00,
2013-06-17 21:53:00,58.0,49.0,-100.00,SSW,194,4.0,11.0,71,0.00,,,0.00,28.000000,,2013-06-18 05:53:00,
2013-06-17 22:32:00,55.0,48.0,-100.00,South,188,5.0,8.0,77,0.00,,,0.00,7.000000,,2013-06-18 06:32:00,
2013-06-17 22:43:00,55.0,48.0,-100.00,South,188,5.0,8.0,77,0.00,,,0.00,7.000000,,2013-06-18 06:43:00,
2013-06-17 22:52:00,55.0,48.0,-100.00,South,188,5.0,8.0,77,0.00,,,0.00,7.000000,,2013-06-18 06:52:00,
2013-06-17 23:22:00,54.0,49.0,-100.00,SSW,208,3.0,7.0,82,0.00,,,0.00,0.000000,,2013-06-18 07:22:00,
2013-06-17 23:33:00,54.0,49.0,-100.00,SSW,208,3.0,7.0,82,0.00,,,0.00,0.000000,,2013-06-18 07:33:00,
2013-06-17 23:43:00,54.0,49.0,-100.00,SSW,208,3.0,7.0,82,0.00,,,0.00,0.000000,,2013-06-18 07:43:00,
2013-06-17 23:52:00,54.0,49.0,-100.00,SSW,208,3.0,7.0,82,0.00,,,0.00,0.000000,,2013-06-18 07:52:00,